This demonstration page uses our WeatherBlox Daily Observations layout. Learn more.

Left ArrowRight Arrow

Hourly Observations for July 4, 2022

Temp ( °F °C ) Dew Point ( °F °C ) Humidity (%) Winds ( mph kmh ) Pressure ( in mb ) Visibility ( mi km ) Precip ( " mm )
12:53 am 00:53 Clear 66 18.9 61 16.1 84 84 Calm 30.14 1021 10 16 0.00 0.00
1:53 am 01:53 Clear 65 18.3 61 16.1 87 87 Calm 30.14 1021 10 16 0.00 0.00
2:53 am 02:53 Clear 64 17.8 60 15.6 87 87 Calm 30.14 1021 10 16 0.00 0.00
3:53 am 03:53 Clear 63 17.2 61 16.1 93 93 Calm 30.13 1020 10 16 0.00 0.00
4:53 am 04:53 Clear 63 17.2 61 16.1 93 93 Calm 30.14 1021 10 16 0.00 0.00
5:53 am 05:53 Clear 62 16.7 60 15.6 93 93 Calm 30.15 1021 10 16 0.00 0.00
6:53 am 06:53 Sunny 64 17.8 62 16.7 93 93 Calm 30.15 1021 10 16 0.00 0.00
7:53 am 07:53 Sunny 69 20.6 64 17.8 84 84 Calm 30.16 1021 10 16 0.00 0.00
8:53 am 08:53 Sunny 76 24.4 64 17.8 67 67 Calm 30.16 1021 10 16 0.00 0.00
9:53 am 09:53 Sunny 82 27.8 63 17.2 53 53 Calm 30.17 1022 10 16 0.00 0.00
10:53 am 10:53 Sunny 85 29.4 62 16.7 46 46 VRB 6 9 30.16 1021 10 16 0.00 0.00
11:53 am 11:53 Sunny 85 29.4 59 15 42 42 SSE 8 13 30.15 1021 10 16 0.00 0.00
12:53 pm 12:53 Sunny 86 30 59 15 40 40 ESE 8 13 30.14 1021 10 16 0.00 0.00
1:53 pm 13:53 Sunny 88 31.1 56 13.3 34 34 VRB 6 9 30.11 1020 10 16 0.00 0.00
2:53 pm 14:53 Sunny 89 31.7 61 16.1 39 39 SSE 5 7 30.10 1019 10 16 0.00 0.00
3:53 pm 15:53 Sunny 90 32.2 60 15.6 37 37 VRB 3 6 30.07 1018 10 16 0.00 0.00
4:53 pm 16:53 Sunny 90 32.2 59 15 35 35 VRB 6 9 30.05 1018 10 16 0.00 0.00
5:53 pm 17:53 Sunny 90 32.2 62 16.7 39 39 Calm 30.04 1017 10 16 0.00 0.00
6:53 pm 18:53 Sunny 88 31.1 64 17.8 45 45 Calm 30.04 1017 10 16 0.00 0.00
7:53 pm 19:53 Sunny 85 29.4 64 17.8 50 50 Calm 30.04 1017 10 16 0.00 0.00
8:53 pm 20:53 Sunny 78 25.6 66 18.9 67 67 Calm 30.04 1017 10 16 0.00 0.00
9:53 pm 21:53 Clear 77 25 65 18.3 66 66 Calm 30.03 1017 10 16 0.00 0.00
10:53 pm 22:53 Clear 78 25.6 65 18.3 64 64 Calm 30.01 1016 10 16 0.00 0.00
11:53 pm 23:53 Clear 79 26.1 64 17.8 60 60 Calm 30.02 1017 10 16 0.00 0.00

Powered by AerisWeather